This demonstration page uses our WeatherBlox Daily Observations layout. Learn more.

Left ArrowRight Arrow

41.12389, -100.76542

Hourly Observations for March 29, 2020

Temp ( °F °C ) Dew Point ( °F °C ) Humidity (%) Winds ( mph kmh ) Pressure ( in mb ) Visibility ( mi km ) Precip ( " mm )
12:53 am 00:53 Clear 38 3.3 31 -0.6 76 76 NW 10 17 29.94 1014 10 16 0.00 0.00
1:53 am 01:53 Clear 34 1.1 29 -1.7 82 82 NW 8 13 29.96 1015 10 16 0.00 0.00
2:53 am 02:53 Clear 32 0 28 -2.2 85 85 NW 8 13 29.97 1015 10 16 0.00 0.00
3:53 am 03:53 Clear 32 0 27 -2.8 82 82 WNW 6 9 29.98 1015 10 16 0.00 0.00
4:53 am 04:53 Partly Cloudy 31 -0.6 26 -3.3 82 82 NNW 7 11 29.99 1016 10 16 0.00 0.00
5:53 am 05:53 Cloudy 31 -0.6 27 -2.8 85 85 NNW 7 11 30.01 1016 10 16 0.00 0.00
6:53 am 06:53 Clear 28 -2.2 24 -4.4 85 85 NNW 8 13 30.04 1017 10 16 0.00 0.00
7:53 am 07:53 Sunny 27 -2.8 23 -5 85 85 NNW 7 11 30.06 1018 10 16 0.00 0.00
8:53 am 08:53 Sunny 37 2.8 29 -1.7 73 73 WNW 9 15 30.07 1018 10 16 0.00 0.00
9:53 am 09:53 Sunny 44 6.7 32 0 63 63 WNW 10 17 30.08 1019 10 16 0.00 0.00
10:53 am 10:53 Sunny 50 10 33 0.6 52 52 WNW 9 15 30.09 1019 10 16 0.00 0.00
11:53 am 11:53 Sunny 56 13.3 31 -0.6 39 39 NW 9 15 30.09 1019 10 16 0.00 0.00
12:53 pm 12:53 Sunny 58 14.4 26 -3.3 29 29 NNW 9 15 30.08 1019 10 16 0.00 0.00
1:53 pm 13:53 Partly Cloudy 60 15.6 26 -3.3 27 27 WNW 12 19 30.06 1018 10 16 0.00 0.00
2:53 pm 14:53 Sunny 61 16.1 26 -3.3 26 26 NW 9 15 30.05 1018 10 16 0.00 0.00
3:53 pm 15:53 Mostly Cloudy 63 17.2 26 -3.3 25 25 NW 12 19 30.04 1017 10 16 0.00 0.00
4:53 pm 16:53 Mostly Cloudy 63 17.2 26 -3.3 25 25 VRB 7 11 30.04 1017 10 16 0.00 0.00
5:53 pm 17:53 Mostly Cloudy 63 17.2 25 -3.9 24 24 WNW 10 17 30.04 1017 10 16 0.00 0.00
6:53 pm 18:53 Sunny 58 14.4 27 -2.8 31 31 W 9 15 30.06 1018 10 16 0.00 0.00
7:53 pm 19:53 Sunny 55 12.8 29 -1.7 37 37 SW 5 7 30.08 1019 10 16 0.00 0.00
8:53 pm 20:53 Clear 43 6.1 29 -1.7 58 58 SE 3 6 30.09 1019 10 16 0.00 0.00
9:53 pm 21:53 Clear 40 4.4 29 -1.7 65 65 Calm 30.10 1019 10 16 0.00 0.00
10:53 pm 22:53 Clear 37 2.8 29 -1.7 73 73 SW 6 9 30.10 1019 10 16 0.00 0.00
11:53 pm 23:53 Mostly Clear 35 1.7 28 -2.2 76 76 SSE 3 6 30.09 1019 10 16 0.00 0.00

Powered by AerisWeather